K5BOU Weather Reports


time (UTC)temp
C
wind
direction
speed
KPH
gust
KPH
rain 1hr
cm
rain 24hr
cm
rain mn
cm
humidity
%
barometer
mb
20260504151022 23 168 11.3 14.5 0.00 0.00 0.00 78 1013.9
20260504150520 23 175 6.4 12.9 0.00 0.00 0.00 77 1013.7
20260504140945 21 177 0.0 3.2 0.00 0.00 0.00 81 1013.8
20260504140442 21 170 3.2 4.8 0.00 0.00 0.00 81 1014.0
20260504130401 16 169 0.0 0.0 0.00 0.00 0.00 94 1013.5
20260504110248 12 177 0.0 0.0 0.00 0.00 0.00 99 1013.4
20260504100212 12 189 0.0 0.0 0.00 0.00 0.00 99 1013.8
20260504090134 13 188 0.0 0.0 0.00 0.00 0.00 99 1014.4
20260504081604 13 188 0.0 0.0 0.00 0.00 0.00 99 1014.2
20260504081100 13 188 0.0 0.0 0.00 0.00 0.00 99 1014.5
20260504080557 13 184 0.0 0.0 0.00 0.00 0.00 99 1014.3
20260504050410 14 188 0.0 0.0 0.00 0.00 0.00 92 1016.5
20260504045907 15 188 0.0 0.0 0.00 0.00 0.00 91 1016.6
20260504045402 15 188 0.0 0.0 0.00 0.00 0.00 91 1016.4
20260504044859 15 188 0.0 0.0 0.00 0.00 0.00 90 1016.5
20260504044356 15 188 0.0 0.0 0.00 0.00 0.00 89 1016.6
20260504043854 15 188 0.0 0.0 0.00 0.00 0.00 88 1016.6
20260504043350 15 188 0.0 0.0 0.00 0.00 0.00 87 1016.6
20260504042848 15 188 0.0 0.0 0.00 0.00 0.00 87 1016.6
20260504042344 15 188 0.0 0.0 0.00 0.00 0.00 85 1016.7
20260504041840 16 188 0.0 0.0 0.00 0.00 0.00 84 1016.7
20260504041337 16 188 0.0 0.0 0.00 0.00 0.00 82 1016.9
20260504040833 16 188 0.0 0.0 0.00 0.00 0.00 81 1016.8
20260504040331 16 188 0.0 0.0 0.00 0.00 0.00 81 1016.5
20260504035826 16 188 0.0 0.0 0.00 0.00 0.00 80 1016.7
20260504035324 17 188 0.0 0.0 0.00 0.00 0.00 80 1016.6
20260504034821 17 188 0.0 0.0 0.00 0.00 0.00 78 1016.7
20260504034319 17 188 0.0 0.0 0.00 0.00 0.00 77 1016.3
20260504033815 18 187 0.0 0.0 0.00 0.00 0.00 76 1016.4
20260504033314 18 174 0.0 1.6 0.00 0.00 0.00 75 1016.6
20260504032809 18 187 0.0 0.0 0.00 0.00 0.00 74 1016.6
20260504032307 18 188 0.0 4.8 0.00 0.00 0.00 73 1016.6
20260504031804 18 178 0.0 4.8 0.00 0.00 0.00 72 1016.6
20260504031301 18 181 1.6 3.2 0.00 0.00 0.00 72 1016.4
20260504030757 18 168 0.0 1.6 0.00 0.00 0.00 72 1016.5
20260504030254 18 154 1.6 4.8 0.00 0.00 0.00 72 1016.4
20260504025750 18 171 1.6 3.2 0.00 0.00 0.00 72 1016.6
20260504025247 19 182 1.6 4.8 0.00 0.00 0.00 72 1016.4
20260504024744 19 186 1.6 1.6 0.00 0.00 0.00 71 1016.6
20260504024241 19 185 1.6 3.2 0.00 0.00 0.00 70 1016.4
20260504023738 20 148 0.0 3.2 0.00 0.00 0.00 69 1016.1
20260504023234 20 171 1.6 3.2 0.00 0.00 0.00 68 1016.2
20260504022730 20 165 1.6 1.6 0.00 0.00 0.00 68 1016.2
20260504022226 20 157 1.6 4.8 0.00 0.00 0.00 67 1016.1
20260504021724 20 174 1.6 3.2 0.00 0.00 0.00 67 1016.0
20260504021221 20 184 1.6 4.8 0.00 0.00 0.00 67 1016.0
20260504020717 20 194 1.6 8.0 0.00 0.00 0.00 66 1016.1
20260504020214 20 165 1.6 4.8 0.00 0.00 0.00 66 1016.0
20260504015710 20 164 1.6 4.8 0.00 0.00 0.00 66 1016.0
20260504015207 20 150 1.6 3.2 0.00 0.00 0.00 67 1015.9
20260504014702 20 184 0.0 3.2 0.00 0.00 0.00 64 1015.9
20260504014200 21 172 0.0 4.8 0.00 0.00 0.00 63 1015.9
20260504013657 21 175 0.0 1.6 0.00 0.00 0.00 62 1015.8
20260504013154 21 156 4.8 8.0 0.00 0.00 0.00 61 1015.7
20260504012651 21 128 3.2 9.7 0.00 0.00 0.00 61 1015.7
20260504012149 21 159 0.0 3.2 0.00 0.00 0.00 61 1015.6
20260504011646 21 159 1.6 3.2 0.00 0.00 0.00 60 1015.9
20260504011142 21 174 3.2 9.7 0.00 0.00 0.00 59 1015.8
20260504010638 22 147 4.8 9.7 0.00 0.00 0.00 58 1015.7
20260504010134 22 142 1.6 11.3 0.00 0.00 0.00 58 1015.9
20260504005631 22 134 4.8 9.7 0.00 0.00 0.00 57 1015.7
20260504005128 22 160 0.0 8.0 0.00 0.00 0.00 58 1015.8
20260504004626 22 166 1.6 3.2 0.00 0.00 0.00 57 1015.7
20260504004123 22 177 1.6 4.8 0.00 0.00 0.00 56 1015.7
20260504003619 23 163 1.6 4.8 0.00 0.00 0.00 56 1015.7
20260504003116 23 142 0.0 4.8 0.00 0.00 0.00 55 1015.7
20260504002613 23 147 1.6 8.0 0.00 0.00 0.00 55 1015.7
20260504002110 23 187 3.2 9.7 0.00 0.00 0.00 54 1015.8
20260504001608 23 156 0.0 8.0 0.00 0.00 0.00 54 1015.8
20260504001103 23 173 0.0 4.8 0.00 0.00 0.00 53 1015.5
20260504000601 23 201 3.2 8.0 0.00 0.00 0.00 53 1015.4
20260504000059 23 173 0.0 4.8 0.00 0.00 0.00 53 1015.6
20260503235556 23 155 6.4 12.9 0.00 0.00 0.00 51 1015.7
20260503235053 24 175 3.2 11.3 0.00 0.00 0.00 51 1015.6
20260503234551 25 166 1.6 9.7 0.00 0.00 0.00 51 1015.8
20260503234049 25 103 4.8 9.7 0.00 0.00 0.00 52 1015.9
20260503233545 25 160 4.8 14.5 0.00 0.00 0.00 51 1015.8
20260503233041 25 135 9.7 14.5 0.00 0.00 0.00 50 1015.7
20260503232539 25 199 8.0 11.3 0.00 0.00 0.00 50 1015.8
20260503232036 25 160 4.8 9.7 0.00 0.00 0.00 50 1015.9
20260503231534 25 223 9.7 12.9 0.00 0.00 0.00 49 1015.8
20260503231030 25 163 1.6 4.8 0.00 0.00 0.00 49 1015.9
20260503230527 26 176 8.0 11.3 0.00 0.00 0.00 47 1015.9
20260503230024 26 167 3.2 8.0 0.00 0.00 0.00 45 1015.9
20260503225521 26 163 6.4 9.7 0.00 0.00 0.00 46 1015.9
20260503225016 26 200 6.4 12.9 0.00 0.00 0.00 44 1015.9
20260503224514 26 151 4.8 22.5 0.00 0.00 0.00 45 1015.8
20260503224011 26 147 9.7 11.3 0.00 0.00 0.00 45 1016.3
20260503223509 27 191 14.5 27.4 0.00 0.00 0.00 45 1016.4
20260503223004 27 191 14.5 27.4 0.00 0.00 0.00 45 1016.2
20260503222503 27 166 8.0 11.3 0.00 0.00 0.00 44 1016.2
20260503222001 27 166 8.0 11.3 0.00 0.00 0.00 44 1016.4
20260503221459 26 202 3.2 9.7 0.00 0.00 0.00 42 1016.7
20260503220955 26 202 3.2 9.7 0.00 0.00 0.00 42 1016.6
20260503220452 26 205 3.2 11.3 0.00 0.00 0.00 41 1016.6
20260503215949 26 210 6.4 20.9 0.00 0.00 0.00 40 1016.5
20260503215445 26 147 8.0 11.3 0.00 0.00 0.00 41 1016.5
20260503214943 26 171 11.3 14.5 0.00 0.00 0.00 38 1016.6
20260503214441 26 171 11.3 14.5 0.00 0.00 0.00 38 1016.5
20260503213938 27 196 1.6 1.6 0.00 0.00 0.00 38 1016.8
20260503213436 27 196 1.6 1.6 0.00 0.00 0.00 38 1016.7
20260503212932 27 196 1.6 4.8 0.00 0.00 0.00 38 1017.0
20260503212430 27 156 4.8 8.0 0.00 0.00 0.00 40 1017.1
20260503211927 -17 0.0 0.0 0.00 0.00 0.00 1016.9
20260503211424 27 155 4.8 11.3 0.00 0.00 0.00 43 1017.2
20260503210919 27 155 4.8 11.3 0.00 0.00 0.00 43 1017.2
20260503210417 27 155 4.8 11.3 0.00 0.00 0.00 43 1017.3
20260503205916 27 155 4.8 11.3 0.00 0.00 0.00 43 1017.4
20260503205414 27 155 4.8 11.3 0.00 0.00 0.00 43 1017.4
20260503204910 27 155 4.8 11.3 0.00 0.00 0.00 43 1017.4
20260503204408 27 155 4.8 11.3 0.00 0.00 0.00 43 1017.4
20260503203905 27 155 4.8 11.3 0.00 0.00 0.00 43 1017.3
20260503203402 27 155 4.8 11.3 0.00 0.00 0.00 43 1017.5
20260503202858 27 155 4.8 11.3 0.00 0.00 0.00 43 1017.7
20260503202357 27 155 4.8 11.3 0.00 0.00 0.00 43 1017.7
20260503201855 27 155 4.8 11.3 0.00 0.00 0.00 43 1017.9
20260503201352 27 197 6.4 11.3 0.00 0.00 0.00 41 1017.9
20260503200849 27 197 6.4 11.3 0.00 0.00 0.00 41 1018.0
20260503200345 27 206 3.2 3.2 0.00 0.00 0.00 41 1018.2
20260503195842 27 206 3.2 3.2 0.00 0.00 0.00 41 1018.2
20260503195338 26 168 1.6 3.2 0.00 0.00 0.00 47 1018.5
20260503194836 26 156 8.0 11.3 0.00 0.00 0.00 43 1018.3
20260503194332 26 156 8.0 11.3 0.00 0.00 0.00 43 1018.5
20260503193828 26 135 6.4 11.3 0.00 0.00 0.00 45 1018.4
20260503193324 26 193 9.7 12.9 0.00 0.00 0.00 45 1018.4
20260503192820 26 193 9.7 12.9 0.00 0.00 0.00 45 1018.7
20260503192316 26 162 8.0 12.9 0.00 0.00 0.00 44 1018.7
20260503191812 26 187 4.8 8.0 0.00 0.00 0.00 48 1018.8
20260503191309 26 160 11.3 14.5 0.00 0.00 0.00 43 1018.7
20260503190806 26 160 11.3 14.5 0.00 0.00 0.00 43 1019.0
20260503190303 26 160 11.3 14.5 0.00 0.00 0.00 43 1019.1
20260503185800 26 183 4.8 8.0 0.00 0.00 0.00 46 1019.1
20260503185256 26 140 3.2 4.8 0.00 0.00 0.00 44 1019.1
20260503184755 26 140 3.2 4.8 0.00 0.00 0.00 44 1019.2
20260503184252 26 185 6.4 9.7 0.00 0.00 0.00 41 1019.3
20260503183748 26 185 6.4 9.7 0.00 0.00 0.00 41 1019.4
20260503183246 26 185 6.4 9.7 0.00 0.00 0.00 41 1019.5
20260503182743 26 171 4.8 8.0 0.00 0.00 0.00 43 1019.8
20260503182242 -17 0.0 0.0 0.00 0.00 0.00 1019.5
20260503181739 -17 0.0 0.0 0.00 0.00 0.00 1019.8
20260503181236 -17 0.0 0.0 0.00 0.00 0.00 1019.8
20260503180732 25 155 9.7 12.9 0.00 0.00 0.00 48 1019.9
20260503180230 25 155 9.7 12.9 0.00 0.00 0.00 48 1019.9
20260503175726 25 155 9.7 12.9 0.00 0.00 0.00 48 1020.0
20260503175225 25 155 9.7 12.9 0.00 0.00 0.00 48 1020.2
20260503174720 25 155 9.7 12.9 0.00 0.00 0.00 48 1020.4
20260503174219 25 155 9.7 12.9 0.00 0.00 0.00 48 1020.2
20260503173713 25 155 9.7 12.9 0.00 0.00 0.00 48 1020.5
20260503173210 25 155 9.7 12.9 0.00 0.00 0.00 48 1020.4
20260503172707 25 155 9.7 12.9 0.00 0.00 0.00 48 1020.5
20260503172204 25 155 9.7 12.9 0.00 0.00 0.00 48 1020.5
20260503171700 25 155 9.7 12.9 0.00 0.00 0.00 48 1020.7
20260503171158 25 155 9.7 12.9 0.00 0.00 0.00 48 1020.9
20260503170654 25 159 1.6 1.6 0.00 0.00 0.00 48 1020.9
20260503170151 25 140 8.0 11.3 0.00 0.00 0.00 49 1020.8